Showing default

ORBCOMM FM 115, 41186

Orbit data source: Space-Track

ORBCOMM FM 115, 41186 is a payload satellite owned by Orbcomm (US) in LEO that was launched on Tue, 22 Dec 2015 UTC via an FALCON 9 launch vehicle from the Air Force Eastern Test Range (AFETR). Payload-class satellites include a variety of spacecraft equipped with specific instruments for various scientific and technological missions. These include communications satellites like Starlink; space stations such as the ISS; scientific satellites like the Hubble; Earth observation satellites from companies like Planet Labs, Umbra, and HawkEye 360; GPS; miniature CubeSats for education and research; and military/defense satellites.

Loading next visibility...
Identifier
41186, 2015-081H
Orbit
LEO
Country
Flag of USUS / ORB
Related business
Manufacturer
SNC Louisville
Mission
Non-operational Commercial Communications
Bus & Motor
SN-100A, Unknown motor
Mass
172 kg wet, 158 kg dry
Launch date (UTC)
2015-12-22 (10 years ago)
Launch vehicle
FALCON 9
Launch site
Air Force Eastern Test Range (AFETR)
Object type
Payload
Rocket body
Debris
Shape & HBR
Box + 1 Pan + 1 Ant, 5.3 m
Radar Cross Section
2.222 m², Medium (>0.1 m² and < 1m²)

Expand to show TLE details & history
Last TLE update: 12 hours ago

TLE from 12 hours ago
0 ORBCOMM FM 115
1 41186U 15081H   26126.85773942  .00000571  00000-0  14387-3 0  9996
2 41186  46.9988 299.2960 0000676 155.4957 204.5962 14.63218354555165
Epoch: 2026-05-06T20:35Z
TLE epoch observation values (Epoch: 2026-05-06T20:35:08.685Z)
Latitude
-0.00009°
Longitude
125.79752°
Altitude
683.451 km
Speed
7.516 km/s
True Right ascension
19h 57m 11s
True Declination
0° 00' 00"
Sunlit
Object was in daylight at epoch
Visualization orbit readout
Latitude
Unknown
Longitude
Unknown
Altitude
Unknown
Speed
Unknown
Apparent Right ascension
Unknown
Apparent Declination
Unknown
Sunlit
N/A
Visualization observer readout
Local Sidereal Time
16:19:15
Azimuth
Unknown
Elevation
Unknown
Doppler factor
Unknown
Orbital elements
Apogee altitude
684.516 km
Perigee altitude
683.562 km
Semi-major axis
7,062.176 km
Eccentricity
0.00007
Inclination
46.9988°
RAAN
299.296°
Arg. of periapsis
155.4957°
True anomaly
204.59298°
Mean anomaly
204.5962°
Eccentric anomaly
204.59459°
Mean motion
3.65709 °/min
Orbital period
98.44 mins
BSTAR
0.00014387
Loading maneuver chart data...
Computing Atmospheric mass density...
Loading historical data...
Loading historical data...
Loading historical data...
Loading historical data...
Loading historical data...
Loading historical data...
Loading historical data...

Documentation

Showing up to 5 results
|